STARLINK-3072, 49153

Orbit data source: Space-Track

STARLINK-3072, 49153 is a payload satellite owned by SpaceX/Seattle (US) in LEO that was launched on Tue, 14 Sep 2021 UTC via an FALCON 9 launch vehicle from the Air Force Western Test Range (AFWTR). Payload-class satellites include a variety of spacecraft equipped with specific instruments for various scientific and technological missions. These include communications satellites like Starlink; space stations such as the ISS; scientific satellites like the Hubble; Earth observation satellites from companies like Planet Labs, Umbra, and HawkEye 360; GPS; miniature CubeSats for education and research; and military/defense satellites.

Loading next visibility...
Identifier
49153, 2021-082Z
Orbit
LEO
Country
Flag of USUS
Related business
Manufacturer
SpaceX/Seattle
Mission
Operational Commercial Communications
Bus & Motor
STARLINK, Unknown motor
Mass
297 kg wet, ~275 kg dry
Launch date (UTC)
2021-09-14 (5 years ago)
Launch vehicle
FALCON 9
Launch site
Air Force Western Test Range (AFWTR)
Object type
Payload
Rocket body
Debris
Shape & HBR
Box + 1 Pan, 10.1 m
Radar Cross Section
13.562 m², Large (>1 m²)

Expand to show TLE details & history
Last TLE update: 3 days ago

TLE from 3 days ago
0 STARLINK-3072
1 49153U 21082Z   26170.71023079  .00000320  00000-0  34625-4 0  9999
2 49153  69.9999 357.2252 0002389 266.5951  93.4935 14.98331740263450
Epoch: 2026-06-19T17:02Z
TLE epoch observation values (Epoch: 2026-06-19T17:02:43.940Z)
Latitude
0.00001°
Longitude
-166.39318°
Altitude
574.576 km
Speed
7.574 km/s
True Right ascension
23h 48m 54s
True Declination
0° 00' 00"
Sunlit
Object was in daylight at epoch
Visualization orbit readout
Latitude
Unknown
Longitude
Unknown
Altitude
Unknown
Speed
Unknown
Apparent Right ascension
Unknown
Apparent Declination
Unknown
Sunlit
N/A
Visualization observer readout
Local Sidereal Time
21:37:50
Azimuth
Unknown
Elevation
Unknown
Doppler factor
Unknown
Orbital elements
Apogee altitude
571.659 km
Perigee altitude
568.339 km
Semi-major axis
6,948.136 km
Eccentricity
0.00024
Inclination
69.9999°
RAAN
357.2252°
Arg. of periapsis
266.5951°
True anomaly
93.52082°
Mean anomaly
93.4935°
Eccentric anomaly
93.50716°
Mean motion
3.74749 °/min
Orbital period
96.06 mins
BSTAR
0.000034625
Loading maneuver chart data...
Computing Atmospheric mass density...

Documentation

Showing up to 5 results
|